Location: Althorst
(53.6379°N, 10.7715°E)
Time: 13:57:27
(UTC+00:00)

Cosmos 2322 Rocket - Pass Details

Date: 10 December 2019
Orbit: 831 x 852 km, 71.0° (Epoch: 28 January)

Event Time Altitude Azimuth Distance (km) Brightness Sun altitude
Rises 17:39:58 0° 279° (W) 3,390 6.6 -22.7°
Reaches altitude 10° 17:43:20 10° 299° (WNW) 2,462 5.3 -23.2°
Maximum altitude 17:46:57 17° 339° (NNW) 2,011 4.3 -23.7°
Enters shadow 17:49:31 13° 10° (N) 2,253 4.2 -24.1°
